Time,TemperatureF,DewpointF,PressureIn,WindDirection,WindDirectionDegrees,WindSpeedMPH,WindSpeedGustMPH,Humidity,HourlyPrecipIn,Conditions,Clouds,dailyrainin,SoftwareType,DateUTC
2013-05-31 00:03:00,69.0,66.0,-100.00,ESE,105,0.0,0.0,91,-99.99,,,-99.99,,2013-05-31 04:03:00,
2013-05-31 00:12:00,69.0,66.0,-100.00,ESE,105,0.0,0.0,91,-99.99,,,-99.99,,2013-05-31 04:12:00,
2013-05-31 00:23:00,69.0,66.0,-100.00,East,100,0.0,1.0,92,-99.99,,,-99.99,,2013-05-31 04:23:00,
2013-05-31 00:33:00,69.0,66.0,-100.00,East,100,0.0,1.0,92,-99.99,,,-99.99,,2013-05-31 04:33:00,
2013-05-31 00:42:00,69.0,66.0,-100.00,East,100,0.0,2.0,92,-99.99,,,-99.99,,2013-05-31 04:42:00,
2013-05-31 00:53:00,69.0,66.0,-100.00,East,100,0.0,2.0,92,-99.99,,,-99.99,,2013-05-31 04:53:00,
2013-05-31 01:02:00,68.0,66.0,-100.00,East,85,0.0,1.0,93,-99.99,,,-99.99,,2013-05-31 05:02:00,
2013-05-31 01:12:00,68.0,66.0,-100.00,East,85,0.0,1.0,93,-99.99,,,-99.99,,2013-05-31 05:12:00,
2013-05-31 01:22:00,68.0,66.0,-100.00,South,175,0.0,2.0,94,-99.99,,,-99.99,,2013-05-31 05:22:00,
2013-05-31 01:32:00,68.0,66.0,-100.00,South,175,0.0,2.0,94,-99.99,,,-99.99,,2013-05-31 05:32:00,
2013-05-31 01:42:00,67.0,66.0,-100.00,SSW,195,0.0,0.0,95,-99.99,,,-99.99,,2013-05-31 05:42:00,
2013-05-31 01:52:00,67.0,66.0,-100.00,SSW,195,0.0,0.0,95,-99.99,,,-99.99,,2013-05-31 05:52:00,
2013-05-31 02:02:00,68.0,66.0,-100.00,SE,135,0.0,3.0,93,-99.99,,,-99.99,,2013-05-31 06:02:00,
2013-05-31 02:12:00,68.0,66.0,-100.00,SE,135,0.0,3.0,93,-99.99,,,-99.99,,2013-05-31 06:12:00,
2013-05-31 02:22:00,68.0,66.0,-100.00,ESE,120,0.0,2.0,93,-99.99,,,-99.99,,2013-05-31 06:22:00,
2013-05-31 02:32:00,68.0,66.0,-100.00,ESE,120,0.0,2.0,93,-99.99,,,-99.99,,2013-05-31 06:32:00,
2013-05-31 02:42:00,68.0,67.0,-100.00,SSE,160,1.0,3.0,94,-99.99,,,-99.99,,2013-05-31 06:42:00,
2013-05-31 02:52:00,68.0,67.0,-100.00,SSE,160,1.0,3.0,94,-99.99,,,-99.99,,2013-05-31 06:52:00,
2013-05-31 03:02:00,68.0,67.0,-100.00,SSE,160,0.0,2.0,96,-99.99,,,-99.99,,2013-05-31 07:02:00,
2013-05-31 03:12:00,68.0,67.0,-100.00,SSE,160,0.0,2.0,96,-99.99,,,-99.99,,2013-05-31 07:12:00,
2013-05-31 03:21:00,68.0,67.0,-100.00,SSE,155,0.0,1.0,98,-99.99,,,-99.99,,2013-05-31 07:21:00,
2013-05-31 03:32:00,68.0,67.0,-100.00,SSE,155,0.0,1.0,98,-99.99,,,-99.99,,2013-05-31 07:32:00,
2013-05-31 03:42:00,68.0,67.0,-100.00,South,185,0.0,2.0,98,-99.99,,,-99.99,,2013-05-31 07:42:00,
2013-05-31 03:53:00,68.0,67.0,-100.00,South,185,0.0,2.0,98,-99.99,,,-99.99,,2013-05-31 07:53:00,
2013-05-31 04:02:00,68.0,67.0,-100.00,SSE,160,0.0,2.0,98,-99.99,,,-99.99,,2013-05-31 08:02:00,
2013-05-31 04:11:00,68.0,67.0,-100.00,SSE,160,0.0,2.0,98,-99.99,,,-99.99,,2013-05-31 08:11:00,
2013-05-31 04:22:00,68.0,67.0,-100.00,SSE,155,0.0,2.0,98,-99.99,,,-99.99,,2013-05-31 08:22:00,
2013-05-31 04:32:00,68.0,67.0,-100.00,SSE,155,0.0,2.0,98,-99.99,,,-99.99,,2013-05-31 08:32:00,
2013-05-31 04:42:00,68.0,67.0,-100.00,South,170,0.0,2.0,98,-99.99,,,-99.99,,2013-05-31 08:42:00,
2013-05-31 04:52:00,68.0,67.0,-100.00,South,170,0.0,2.0,98,-99.99,,,-99.99,,2013-05-31 08:52:00,
2013-05-31 05:01:00,68.0,67.0,-100.00,ESE,110,0.0,2.0,98,-99.99,,,-99.99,,2013-05-31 09:01:00,
2013-05-31 05:11:00,68.0,67.0,-100.00,ESE,110,0.0,2.0,98,-99.99,,,-99.99,,2013-05-31 09:11:00,
2013-05-31 05:21:00,67.0,67.0,-100.00,SSE,165,0.0,1.0,98,-99.99,,,-99.99,,2013-05-31 09:21:00,
2013-05-31 05:32:00,67.0,67.0,-100.00,SSE,165,0.0,1.0,98,-99.99,,,-99.99,,2013-05-31 09:32:00,
2013-05-31 05:43:00,67.0,67.0,-100.00,SSE,150,0.0,2.0,98,-99.99,,,-99.99,,2013-05-31 09:43:00,
2013-05-31 05:53:00,67.0,67.0,-100.00,SSE,150,0.0,2.0,98,-99.99,,,-99.99,,2013-05-31 09:53:00,
2013-05-31 06:02:00,67.0,66.0,-100.00,East,85,0.0,0.0,98,-99.99,,,-99.99,,2013-05-31 10:02:00,
2013-05-31 06:12:00,67.0,66.0,-100.00,East,85,0.0,0.0,98,-99.99,,,-99.99,,2013-05-31 10:12:00,
2013-05-31 06:23:00,67.0,66.0,-100.00,East,95,0.0,3.0,98,-99.99,,,-99.99,,2013-05-31 10:23:00,
2013-05-31 06:33:00,67.0,66.0,-100.00,East,95,0.0,3.0,98,-99.99,,,-99.99,,2013-05-31 10:33:00,
2013-05-31 06:42:00,66.0,65.0,-100.00,SE,125,0.0,2.0,98,-99.99,,,-99.99,,2013-05-31 10:42:00,
2013-05-31 06:52:00,66.0,65.0,-100.00,SE,125,0.0,2.0,98,-99.99,,,-99.99,,2013-05-31 10:52:00,
2013-05-31 07:02:00,66.0,66.0,-100.00,SSW,200,0.0,6.0,98,-99.99,,,-99.99,,2013-05-31 11:02:00,
2013-05-31 07:12:00,66.0,66.0,-100.00,SSW,200,0.0,6.0,98,-99.99,,,-99.99,,2013-05-31 11:12:00,
2013-05-31 07:22:00,67.0,66.0,-100.00,South,175,0.0,2.0,98,-99.99,,,-99.99,,2013-05-31 11:22:00,
2013-05-31 07:32:00,67.0,66.0,-100.00,South,175,0.0,2.0,98,-99.99,,,-99.99,,2013-05-31 11:32:00,
2013-05-31 07:42:00,67.0,67.0,-100.00,ESE,110,0.0,3.0,98,-99.99,,,-99.99,,2013-05-31 11:42:00,
2013-05-31 07:52:00,67.0,67.0,-100.00,ESE,110,0.0,3.0,98,-99.99,,,-99.99,,2013-05-31 11:52:00,
2013-05-31 08:01:00,68.0,68.0,-100.00,SE,145,0.0,2.0,98,-99.99,,,-99.99,,2013-05-31 12:01:00,
2013-05-31 08:11:00,68.0,68.0,-100.00,SE,145,0.0,2.0,98,-99.99,,,-99.99,,2013-05-31 12:11:00,
2013-05-31 08:22:00,69.0,69.0,-100.00,WSW,240,0.0,3.0,98,-99.99,,,-99.99,,2013-05-31 12:22:00,
2013-05-31 08:32:00,69.0,69.0,-100.00,WSW,240,0.0,3.0,98,-99.99,,,-99.99,,2013-05-31 12:32:00,
2013-05-31 08:42:00,70.0,70.0,-100.00,SW,225,0.0,2.0,98,-99.99,,,-99.99,,2013-05-31 12:42:00,
2013-05-31 08:52:00,70.0,70.0,-100.00,SW,225,0.0,2.0,98,-99.99,,,-99.99,,2013-05-31 12:52:00,
2013-05-31 09:01:00,71.0,70.0,-100.00,SSW,205,2.0,6.0,94,-99.99,,,-99.99,,2013-05-31 13:01:00,
2013-05-31 09:11:00,71.0,70.0,-100.00,SSW,205,2.0,6.0,94,-99.99,,,-99.99,,2013-05-31 13:11:00,
2013-05-31 09:21:00,73.0,70.0,-100.00,West,260,1.0,6.0,90,-99.99,,,-99.99,,2013-05-31 13:21:00,
2013-05-31 09:32:00,73.0,70.0,-100.00,West,260,1.0,6.0,90,-99.99,,,-99.99,,2013-05-31 13:32:00,
2013-05-31 09:42:00,74.0,70.0,-100.00,WSW,245,2.0,7.0,86,-99.99,,,-99.99,,2013-05-31 13:42:00,
2013-05-31 09:52:00,74.0,70.0,-100.00,WSW,245,2.0,7.0,86,-99.99,,,-99.99,,2013-05-31 13:52:00,
2013-05-31 10:02:00,75.0,70.0,-100.00,SSE,165,2.0,6.0,83,-99.99,,,-99.99,,2013-05-31 14:02:00,
2013-05-31 10:11:00,75.0,70.0,-100.00,SSE,165,2.0,6.0,83,-99.99,,,-99.99,,2013-05-31 14:11:00,
2013-05-31 10:22:00,77.0,69.0,-100.00,West,265,2.0,7.0,78,-99.99,,,-99.99,,2013-05-31 14:22:00,
2013-05-31 10:32:00,77.0,69.0,-100.00,West,265,2.0,7.0,78,-99.99,,,-99.99,,2013-05-31 14:32:00,
2013-05-31 10:42:00,78.0,70.0,-100.00,SSW,195,1.0,5.0,76,-99.99,,,-99.99,,2013-05-31 14:42:00,
2013-05-31 10:52:00,78.0,70.0,-100.00,SSW,195,1.0,5.0,76,-99.99,,,-99.99,,2013-05-31 14:52:00,
2013-05-31 11:01:00,79.0,68.0,-100.00,WSW,255,4.0,8.0,69,-99.99,,,-99.99,,2013-05-31 15:01:00,
2013-05-31 11:11:00,79.0,68.0,-100.00,WSW,255,4.0,8.0,69,-99.99,,,-99.99,,2013-05-31 15:11:00,
2013-05-31 11:21:00,81.0,68.0,-100.00,SE,140,1.0,7.0,65,-99.99,,,-99.99,,2013-05-31 15:21:00,
2013-05-31 11:33:00,81.0,68.0,-100.00,SE,140,1.0,7.0,65,-99.99,,,-99.99,,2013-05-31 15:33:00,
2013-05-31 11:43:00,83.0,68.0,-100.00,WNW,290,2.0,6.0,62,-99.99,,,-99.99,,2013-05-31 15:43:00,
2013-05-31 11:53:00,83.0,68.0,-100.00,WNW,290,2.0,6.0,62,-99.99,,,-99.99,,2013-05-31 15:53:00,
2013-05-31 12:03:00,84.0,67.0,-100.00,SW,230,2.0,7.0,58,-99.99,,,-99.99,,2013-05-31 16:03:00,
2013-05-31 12:12:00,84.0,67.0,-100.00,SW,230,2.0,7.0,58,-99.99,,,-99.99,,2013-05-31 16:12:00,
2013-05-31 12:22:00,86.0,68.0,-100.00,West,265,1.0,5.0,54,-99.99,,,-99.99,,2013-05-31 16:22:00,
2013-05-31 12:33:00,86.0,68.0,-100.00,West,265,1.0,5.0,54,-99.99,,,-99.99,,2013-05-31 16:33:00,
2013-05-31 12:42:00,87.0,66.0,-100.00,SSE,155,2.0,6.0,49,-99.99,,,-99.99,,2013-05-31 16:42:00,
2013-05-31 12:53:00,87.0,66.0,-100.00,SSE,155,2.0,6.0,49,-99.99,,,-99.99,,2013-05-31 16:53:00,
2013-05-31 13:02:00,87.0,64.0,-100.00,WNW,285,1.0,9.0,47,-99.99,,,-99.99,,2013-05-31 17:02:00,
2013-05-31 13:12:00,87.0,64.0,-100.00,WNW,285,1.0,9.0,47,-99.99,,,-99.99,,2013-05-31 17:12:00,
2013-05-31 13:22:00,85.0,64.0,-100.00,WSW,250,5.0,11.0,48,-99.99,,,-99.99,,2013-05-31 17:22:00,
2013-05-31 13:32:00,85.0,64.0,-100.00,WSW,250,5.0,11.0,48,-99.99,,,-99.99,,2013-05-31 17:32:00,
2013-05-31 13:42:00,85.0,64.0,-100.00,WSW,250,5.0,11.0,48,-99.99,,,-99.99,,2013-05-31 17:42:00,
2013-05-31 14:02:00,87.0,62.0,-100.00,West,270,5.0,13.0,43,-99.99,,,-99.99,,2013-05-31 18:02:00,
2013-05-31 14:12:00,87.0,62.0,-100.00,West,270,5.0,13.0,43,-99.99,,,-99.99,,2013-05-31 18:12:00,
2013-05-31 14:22:00,90.0,63.0,-100.00,West,280,1.0,5.0,40,-99.99,,,-99.99,,2013-05-31 18:22:00,
2013-05-31 14:32:00,90.0,63.0,-100.00,West,280,1.0,5.0,40,-99.99,,,-99.99,,2013-05-31 18:32:00,
2013-05-31 14:42:00,91.0,62.0,-100.00,South,190,1.0,8.0,38,-99.99,,,-99.99,,2013-05-31 18:42:00,
2013-05-31 14:52:00,91.0,62.0,-100.00,South,190,1.0,8.0,38,-99.99,,,-99.99,,2013-05-31 18:52:00,
2013-05-31 15:02:00,90.0,60.0,-100.00,SW,225,2.0,9.0,37,-99.99,,,-99.99,,2013-05-31 19:02:00,
2013-05-31 15:11:00,90.0,60.0,-100.00,SW,225,2.0,9.0,37,-99.99,,,-99.99,,2013-05-31 19:11:00,
2013-05-31 15:22:00,89.0,61.0,-100.00,SSE,155,2.0,7.0,39,-99.99,,,-99.99,,2013-05-31 19:22:00,
2013-05-31 15:32:00,89.0,61.0,-100.00,SSE,155,2.0,7.0,39,-99.99,,,-99.99,,2013-05-31 19:32:00,
2013-05-31 15:42:00,90.0,60.0,-100.00,West,265,3.0,9.0,37,-99.99,,,-99.99,,2013-05-31 19:42:00,
2013-05-31 15:52:00,90.0,60.0,-100.00,West,265,3.0,9.0,37,-99.99,,,-99.99,,2013-05-31 19:52:00,
2013-05-31 16:02:00,90.0,60.0,-100.00,WSW,250,3.0,12.0,36,-99.99,,,-99.99,,2013-05-31 20:02:00,
2013-05-31 16:11:00,90.0,60.0,-100.00,WSW,250,3.0,12.0,36,-99.99,,,-99.99,,2013-05-31 20:11:00,
2013-05-31 16:22:00,90.0,60.0,-100.00,South,180,1.0,7.0,36,-99.99,,,-99.99,,2013-05-31 20:22:00,
2013-05-31 16:32:00,90.0,60.0,-100.00,South,180,1.0,7.0,36,-99.99,,,-99.99,,2013-05-31 20:32:00,
2013-05-31 16:42:00,90.0,62.0,-100.00,SSE,155,1.0,5.0,39,-99.99,,,-99.99,,2013-05-31 20:42:00,
2013-05-31 16:52:00,90.0,62.0,-100.00,SSE,155,1.0,5.0,39,-99.99,,,-99.99,,2013-05-31 20:52:00,
2013-05-31 17:01:00,91.0,61.0,-100.00,East,90,1.0,11.0,37,-99.99,,,-99.99,,2013-05-31 21:01:00,
2013-05-31 17:11:00,91.0,61.0,-100.00,East,90,1.0,11.0,37,-99.99,,,-99.99,,2013-05-31 21:11:00,
2013-05-31 17:22:00,92.0,61.0,-100.00,East,80,2.0,6.0,36,-99.99,,,-99.99,,2013-05-31 21:22:00,
2013-05-31 17:33:00,92.0,61.0,-100.00,East,80,2.0,6.0,36,-99.99,,,-99.99,,2013-05-31 21:33:00,
2013-05-31 17:43:00,90.0,60.0,-100.00,South,190,2.0,7.0,36,-99.99,,,-99.99,,2013-05-31 21:43:00,
2013-05-31 17:54:00,90.0,60.0,-100.00,South,190,2.0,7.0,36,-99.99,,,-99.99,,2013-05-31 21:54:00,
2013-05-31 18:03:00,90.0,60.0,-100.00,South,190,2.0,11.0,37,-99.99,,,-99.99,,2013-05-31 22:03:00,
2013-05-31 18:12:00,90.0,60.0,-100.00,South,190,2.0,11.0,37,-99.99,,,-99.99,,2013-05-31 22:12:00,
2013-05-31 18:22:00,89.0,61.0,-100.00,SSE,165,2.0,9.0,39,-99.99,,,-99.99,,2013-05-31 22:22:00,
2013-05-31 18:33:00,89.0,61.0,-100.00,SSE,165,2.0,9.0,39,-99.99,,,-99.99,,2013-05-31 22:33:00,
2013-05-31 18:42:00,90.0,60.0,-100.00,South,180,1.0,4.0,37,-99.99,,,-99.99,,2013-05-31 22:42:00,
2013-05-31 18:53:00,90.0,60.0,-100.00,South,180,1.0,4.0,37,-99.99,,,-99.99,,2013-05-31 22:53:00,
2013-05-31 19:02:00,90.0,60.0,-100.00,South,180,1.0,4.0,37,-99.99,,,-99.99,,2013-05-31 23:02:00,
2013-05-31 19:12:00,90.0,61.0,-100.00,South,175,2.0,5.0,38,-99.99,,,-99.99,,2013-05-31 23:12:00,
2013-05-31 19:22:00,89.0,60.0,-100.00,ESE,120,1.0,5.0,38,-99.99,,,-99.99,,2013-05-31 23:22:00,
2013-05-31 19:32:00,89.0,60.0,-100.00,ESE,120,1.0,5.0,38,-99.99,,,-99.99,,2013-05-31 23:32:00,
2013-05-31 19:42:00,88.0,61.0,-100.00,SSE,155,1.0,5.0,40,-99.99,,,-99.99,,2013-05-31 23:42:00,
2013-05-31 19:52:00,88.0,61.0,-100.00,SSE,155,1.0,5.0,40,-99.99,,,-99.99,,2013-05-31 23:52:00,
2013-05-31 20:01:00,85.0,60.0,-100.00,SSW,200,0.0,4.0,43,-99.99,,,-99.99,,2013-06-01 00:01:00,
2013-05-31 20:12:00,85.0,60.0,-100.00,SSW,200,0.0,4.0,43,-99.99,,,-99.99,,2013-06-01 00:12:00,
2013-05-31 20:22:00,83.0,61.0,-100.00,SSW,195,0.0,4.0,47,-99.99,,,-99.99,,2013-06-01 00:22:00,
2013-05-31 20:32:00,83.0,61.0,-100.00,SSW,195,0.0,4.0,47,-99.99,,,-99.99,,2013-06-01 00:32:00,
2013-05-31 20:42:00,81.0,62.0,-100.00,South,170,0.0,2.0,51,-99.99,,,-99.99,,2013-06-01 00:42:00,
2013-05-31 20:52:00,81.0,62.0,-100.00,South,170,0.0,2.0,51,-99.99,,,-99.99,,2013-06-01 00:52:00,
2013-05-31 21:02:00,80.0,63.0,-100.00,SE,135,0.0,2.0,57,-99.99,,,-99.99,,2013-06-01 01:02:00,
2013-05-31 21:11:00,80.0,63.0,-100.00,SE,135,0.0,2.0,57,-99.99,,,-99.99,,2013-06-01 01:11:00,
2013-05-31 21:22:00,78.0,64.0,-100.00,SE,125,0.0,4.0,63,-99.99,,,-99.99,,2013-06-01 01:22:00,
2013-05-31 21:32:00,78.0,64.0,-100.00,SE,125,0.0,4.0,63,-99.99,,,-99.99,,2013-06-01 01:32:00,
2013-05-31 21:42:00,77.0,65.0,-100.00,East,80,0.0,0.0,67,-99.99,,,-99.99,,2013-06-01 01:42:00,
2013-05-31 21:52:00,77.0,65.0,-100.00,East,80,0.0,0.0,67,-99.99,,,-99.99,,2013-06-01 01:52:00,
2013-05-31 22:02:00,76.0,65.0,-100.00,ENE,75,0.0,0.0,70,-99.99,,,-99.99,,2013-06-01 02:02:00,
2013-05-31 22:12:00,76.0,65.0,-100.00,ENE,75,0.0,0.0,70,-99.99,,,-99.99,,2013-06-01 02:12:00,
2013-05-31 22:21:00,75.0,66.0,-100.00,East,95,0.0,0.0,75,-99.99,,,-99.99,,2013-06-01 02:21:00,
2013-05-31 22:32:00,75.0,66.0,-100.00,East,95,0.0,0.0,75,-99.99,,,-99.99,,2013-06-01 02:32:00,
2013-05-31 22:42:00,74.0,67.0,-100.00,ESE,105,0.0,1.0,79,-99.99,,,-99.99,,2013-06-01 02:42:00,
2013-05-31 22:52:00,74.0,67.0,-100.00,ESE,105,0.0,1.0,79,-99.99,,,-99.99,,2013-06-01 02:52:00,
2013-05-31 23:02:00,73.0,67.0,-100.00,SE,130,0.0,2.0,81,-99.99,,,-99.99,,2013-06-01 03:02:00,
2013-05-31 23:11:00,73.0,67.0,-100.00,SE,130,0.0,2.0,81,-99.99,,,-99.99,,2013-06-01 03:11:00,
2013-05-31 23:22:00,72.0,67.0,-100.00,East,85,0.0,0.0,84,-99.99,,,-99.99,,2013-06-01 03:22:00,
2013-05-31 23:33:00,71.0,67.0,-100.00,NE,50,0.0,1.0,87,-99.99,,,-99.99,,2013-06-01 03:33:00,
2013-05-31 23:43:00,71.0,67.0,-100.00,NE,50,0.0,1.0,87,-99.99,,,-99.99,,2013-06-01 03:43:00,
2013-05-31 23:53:00,71.0,67.0,-100.00,NE,50,0.0,1.0,87,-99.99,,,-99.99,,2013-06-01 03:53:00,